Regional Weather Roundup
Issued by NWS Grand Forks, ND

Home | Current Version | Previous Version | Text Only | Print | Product List | Glossary On
Versions: 1 2 3 4 5 6 7 8 9 10 11 12 13 14 15 16 17 18 19 20 21 22 23 24 25 26 27 28 29 30 31 32 33 34 35 36 37 38 39 40 41 42 43 44 45 46 47 48 49 50
000
ASUS43 KFGF 202231
RWRFGF
PRAIRIE TO PINES  WEATHER ROUNDUP
NATIONAL WEATHER SERVICE EASTERN NORTH DAKOTA/GRAND FORKS ND
400 PM CST SAT DEC 20 2014

 **SATELLITE DATA USED TO AUGMENT SKY COVER AT AUTOMATED STATIONS**
 *****  WEATHER ACROSS EASTERN NORTH DAKOTA  *****

CITY           SKY/WX    TMP DP  RH WIND       PRES   REMARKS
GRAND FORKS    CLOUDY    28  27  96 S10       29.94S FOG     WCI  19
GRAND FRKS AFB CLOUDY    28  28 100 S10       29.93F FOG     WCI  19
GRAND FRKS NWS   N/A     28 N/A N/A S12         N/A  WCI  18
DEVILS LAKE    CLOUDY    27  19  74 S9        29.84S WCI  17
FARGO          CLOUDY    31  27  85 S14       29.96F FOG     WCI  21
WAHPETON ARPT  CLOUDY    32  28  86 S13       29.98F WCI  22
$$

 ***** WEATHER ACROSS CENTRAL AND WESTERN NORTH DAKOTA  *****

CITY           SKY/WX    TMP DP  RH WIND       PRES   REMARKS
BISMARCK       CLEAR     34  28  79 SE5       29.84S
MINOT          CLEAR     29  26  89 SE5       29.78S WCI  24
JAMESTOWN      CLOUDY    30  26  85 S12       29.86F FOG     WCI  20
MINOT AFB      CLEAR     26  26 100 SE5       29.78S WCI  21
GARRISON         N/A     32  29  88 S3        29.79S
WILLISTON      MOCLDY    40  29  64 SW8       29.77S
DICKINSON      CLEAR     44  26  49 W9        29.79R
HETTINGER      MOCLDY    42  27  55 W9        29.84R
$$

 *****  OTHER AIRPORT OBSERVATIONS IN OUR AREA  *****

CITY           SKY/WX    TMP DP  RH WIND       PRES   REMARKS
WALHALLA         N/A     27  27 100 SE7       29.90F FOG     WCI  19
GRAFTON AIRPOR NOT AVBL
VALLEY CITY AR CLOUDY    27  27 100 S28G45    29.90S FOG     WCI  11
CANDO          CLOUDY    25  25 100 SE8       29.85S FOG     WCI  16
CAVALIER APRT  FOG       27  27 100 S12       29.91F VSB 1   WCI  16
GWINNER        CLOUDY    32  32 100 MISG      29.94F
ROLLA          FOG       25  25 100 MISG      29.81F VSB 1/4
 ***** THE ABOVE OBSERVATIONS ARE NON NWS ARE NOT QUALITY
       CONTROLLED AND MAY MIS-REPORT RAIN FOR SNOW...
$$

  *****  WEATHER ACROSS NORTHERN MINNESOTA  *****

CITY           SKY/WX    TMP DP  RH WIND       PRES   REMARKS
FLAG ISLAND    CLOUDY    28  27  93 S8        29.96S WCI  20
WARROAD        CLOUDY    30  27  86 S6        29.97S FOG     WCI  24
ROSEAU         CLOUDY    30  27  86 S7        29.96S HAZE    WCI  23
HALLOCK        FOG       28  28 100 CALM      29.93S VSB 1/2
THF RVR FALLS  CLOUDY    28  28 100 S14       29.96R WCI  17
BAUDETTE       CLOUDY    30  27  88 S7        29.98R WCI  23
WASKISH        CLOUDY    30  28  93 CALM      29.99S FOG
CROOKSTON      CLOUDY    30  28  93 S18       29.96F FOG     WCI  18
STEPHEN NDAWN    N/A     28  28 100 S12         N/A  WCI  18
GREENBUSH NDAW   N/A     28  28 100 S1          N/A
$$
  *****  WEATHER ACROSS CENTRAL AND WEST MINNESOTA  *****

CITY           SKY/WX    TMP DP  RH WIND       PRES   REMARKS
FOSSTON        CLOUDY    27  27 100 S9        29.97S FOG     WCI  17
BEMIDJI        CLOUDY    28  28  96 S10       29.98F FOG     WCI  19
PARK RAPIDS    CLOUDY    30  28  92 S13       29.99S FOG     WCI  20
ELBOW LAKE     CLOUDY    31  29  94 S15       29.99S FOG     WCI  20
WADENA         CLOUDY    28  27  93 S10       30.00S FOG     WCI  19
DETROIT LAKES  CLOUDY    30  30 100 S15       29.98R FOG     WCI  19
MOORHEAD       CLOUDY    30  30 100 S10       29.98S FOG     WCI  21
FERGUS FALLS   CLOUDY    30  28  93 S14       30.01F FOG     WCI  20
MORRIS MN      PTCLDY    32  30  93 S15       30.00S FOG     WCI  22
STAPLES        CLOUDY    28  27  93 S10       30.02S FOG     WCI  19
$$
  *****  WEATHER ELSEWHERE ACROSS MINNESOTA  *****

CITY           SKY/WX    TMP DP  RH WIND       PRES   REMARKS
DULUTH         CLOUDY    30  26  85 S8        30.06S FOG     WCI  22
INTRNTL FALLS  CLOUDY    30  28  92 S5        30.00S FOG
ELY            CLOUDY    28  27  93 S9        30.05S WCI  20
CLOQUET        CLOUDY    30  27  86 S10G17    30.07S WCI  21
WHEATON        CLOUDY    30  27  86 S10       30.01S FOG     WCI  21
BRAINERD       CLOUDY    29  26  89 S10       30.05R WCI  20
HIBBING        CLOUDY    30  26  85 S7        30.04R FOG     WCI  23
ALEXANDRIA     CLOUDY    30  27  88 S12       30.02R FOG     WCI  20
SAINT CLOUD    CLOUDY    32  26  78 S12       30.08R WCI  23
MINNEAPOLIS    CLOUDY    32  27  81 S8        30.12S WCI  25
$$

  *****  WEATHER ACROSS SOUTH DAKOTA  *****

CITY           SKY/WX    TMP DP  RH WIND       PRES   REMARKS
SIOUX FALLS    CLOUDY    30  29  96 SE14      30.01S WCI  19
BROOKINGS      NOT AVBL
WATERTOWN      CLOUDY    30  29  96 S8        29.95F FOG     WCI  22
HURON          CLOUDY    30  29  96 S10       29.96F FOG     WCI  21
SISSETON       NOT AVBL
ABERDEEN       CLOUDY    29  27  92 S13       29.95R FOG     WCI  19
MITCHELL       CLOUDY    31  30  96 S14       29.99R FOG     WCI  21
PIERRE         PTCLDY    28  24  85 SE7       29.89F WCI  21
MOBRIDGE       CLEAR     32  27  81 SE7       29.84S
RAPID CITY     MOCLDY    50  26  39 CALM      29.88R
$$

  *****  SOME WEATHER IN NEARBY STATES *****

CITY           SKY/WX    TMP DP  RH WIND       PRES   REMARKS
GLASGOW MT     CLEAR     44  25  47 W10       29.77S
GREAT FALLS MT PTSUNNY   39  24  55 SW14      29.75F
CHEYENNE WY    PTSUNNY   43  19  38 W13       29.93F
SCOTTSBLUFF NE SUNNY     43  29  57 CALM      29.92S
OMAHA NE       CLOUDY    34  32  92 S10       30.09R FOG
DES MOINES IA  CLOUDY    36  33  89 S7        30.13R FOG
DAVENPORT IA   CLOUDY    33  26  75 SE9       30.20S HAZE
CHICAGO IL     FLURRIES  32  23  69 S7        30.24R
EAU CLAIRE WI  CLOUDY    32  25  75 SE7       30.15S
LA CROSSE WI   CLOUDY    33  28  81 S5        30.18S
$$

  *****  SOME NATIONAL WEATHER *****

CITY           SKY/WX    TMP DP  RH WIND       PRES   REMARKS
LA GUARDIA NY  CLOUDY    33  21  61 N6        30.27S
RALEIGH NC     CLOUDY    38  34  85 CALM      30.26R FOG
ATLANTA GA     CLOUDY    51  45  79 N6        30.16R
NEW ORLEANS LA CLOUDY    52  48  86 N14       30.12R
OKLAHOMA CITY  CLOUDY    44  37  76 S7        30.15S
ALBUQUERQUE NM MOSUNNY   44  26  49 CALM      30.09F
SALT LAKE CITY LGT RAIN  41  36  82 S5        30.07F
LOS ANGELES CA PTSUNNY   61  53  75 W7        30.12F
BOISE ID       LGT RAIN  43  38  82 SE6       29.96S
SEATTLE WA     LGT RAIN  48  45  89 S8        29.52F
$$

*** WEATHER ACROSS MANITOBA...SASKATCHEWAN AND ONTARIO ***
                ***ONTARIO***

CITY           SKY/WX    TMP DP  RH WIND       PRES   REMARKS
GERALDTON      FLURRIES  25  23  93 SE3       30.14S
THUNDER BAY    LGT SNOW  30  30 100 E3        30.14S
SIOUX LOOKOUT  FLURRIES  28  25  86 S5        30.01S WCI  23
TORONTO        MOCLDY    28  23  80 SE6       30.26R WCI  22
BIG TROUT LK   CLOUDY    21  21 100 S6        30.06S WCI  14
PICKLE LAKE    FLURRIES  25  21  86 SE7       30.03S WCI  17
DRYDEN         CLOUDY    27  27 100 S8        30.00R FOG     WCI  18
KENORA         FRZ DRZL  28  27  93 S9        29.95S FOG     WCI  20
$$
                *** MANITOBA***

CITY           SKY/WX    TMP DP  RH WIND       PRES   REMARKS
BRANDON        FOG       23  21  93 SE8       29.84S VSB 5/8 WCI  14
DAUPHIN        CLOUDY    27  23  86 E5        29.83F WCI  21
ISLAND LAKE    FLURRIES  23  21  93 SE6       29.97S WCI  16
PILOT MOUND      N/A     23  23 100 S1          N/A
THE PAS        LGT SNOW  19  18  93 SE12      29.83F FOG     WCI   7
THOMPSON       LGT SNOW  18  16  93 S3        29.90
WINNIPEG       FRZ DRZL  28  27  93 S14G20    29.93R FOG     WCI  17
LYNN LAKE      CLOUDY    16  14  93 S5        29.79S WCI   9
CHURCHILL      FLURRIES  14  12  92 S12       29.92  WCI   0
GILLAM         CLOUDY    18  16  93 S6        29.97F WCI   9
$$
                ***SASKATCHEWAN***

CITY           SKY/WX    TMP DP  RH WIND       PRES   REMARKS
ESTEVAN        PTCLDY    30  30 100 E7        29.73F FOG     WCI  23
KINDERSLEY     PTCLDY    25  23  93 SW7       29.67R WCI  17
LLOYDMINSTER   MOCLDY    18  16  93 S3        29.62
PRINCE ALBERT  FLURRIES  19  18  93 E7        29.71R WCI  10
REGINA         CLOUDY    28  28 100 SE5       29.70  WCI  23
YORKTON        CLOUDY    23  21  93 SE10      29.73F WCI  12
N. BATTLEFORD  CLOUDY    19  18  93 SE3       29.69S
LA RONGE       CLOUDY    18  16  93 E3        29.75F
SASKATOON      LGT SNOW  21  19  93 W5        29.70S FOG     WCI  15
SWIFT CURRENT    N/A     36  25  64 W16       29.66S
$$
NOTE: THESE ARE AUTOMATED STATIONS WITH LIMITED QUALITY CONTROL
      "FAIR" INDICATES FEW OR NO CLOUDS BELOW 12,000 FEET WITH NO
      SIGNIFICANT WEATHER AND/OR OBSTRUCTIONS TO VISIBILITY.
      SKY/WX - SKY CONDITION AND SIGNIFICANT WEATHER.
      TMP - AIR TEMPERATURE.    DP   - DEWPOINT TEMPERATURE.
      RH  - RELATIVE HUMIDITY.  PRES - PRESSURE.
      HX  - HEAT INDEX.         WCI  - WIND CHILL INDEX.
$


USA.gov is the U.S. government's official web portal to all federal, state and local government web resources and services.